{"data":{"norad_id":37744,"epoch":"2026-09-19T15:59:56.018112Z","epoch_age_seconds":86406,"freshness":"FRESH","line1":"1 37744U 11033F   26262.66662058 -.00000086  00000+0  10135-3 0  9997","line2":"2 37744  51.9918 222.1225 0000545  32.7997 138.2984 12.62263729702719","mean_motion":12.62263729,"eccentricity":5.45e-5,"inclination_deg":51.9918,"raan_deg":222.1225,"arg_perigee_deg":32.7997,"mean_anomaly_deg":138.2984,"bstar":0.00010135,"rev_number":70271,"period_min":114.08075562314,"perigee_km":1413.1900778629,"apogee_km":1414.0393788013,"semimajor_km":7791.7517283321,"source":"CELESTRAK","updated_at":"2026-09-20T09:00:45.039306Z"}}